Location: Staunton
(38.1490°N, 79.0720°W)
Time: 01:43:37
(UTC-04:00)

ISS - Pass Details

Date: 13 May 2021
Orbit: 417 x 422 km, 51.6° (Epoch: 18 May)

Event Time Altitude Azimuth Distance (km) Brightness Sun altitude
Rises 22:10:12 0° 224° (SW) 2,344 0.0 -18.9°
Reaches altitude 10° 22:12:17 10° 222° (SW) 1,486 -1.0 -19.2°
Enters shadow 22:13:26 20° 219° (SW) 1,030 -1.9 -19.3°
